Lexington Weather

Lexington, Massachusetts, USA

36°F
1/28/2020 5:27am 
  • Lexington Conditions: Overcast
  • Temperature: 36.3°F / 2.4°CWarmer 0.3°F than last hour.
  • Dew Point: 29.8°FIncreased 0.3°Fsince last hour.
  • Relative Humidity: 77
  • Wind: Wind from NNW NNW 2 mph, 10-min avg: 2 mph, gust: 4 mph
  • Barometer: 29.63 in Steady
  • Visibility: 10 miles
  • Rain Today: 0.00 in
  •   

Regional Weather Roundup
for Boston / Norton, MA

        
000
ASUS41 KBOX 260210
RWRBOX

REGIONAL WEATHER ROUNDUP
NATIONAL WEATHER SERVICE BOSTON/NORTON MA
900 PM EST SAT JAN 25 2020

NOTE:  "FAIR" INDICATES FEW OR NO CLOUDS BELOW 12,000 FEET WITH NO 
SIGNIFICANT WEATHER AND/OR OBSTRUCTIONS TO VISIBILITY.

MAZALL-260300-
EASTERN MASSACHUSETTS
  
CITY           SKY/WX    TMP DP  RH WIND       PRES   REMARKS
BOSTON         LGT RAIN  46  42  86 E20       29.78F FOG              
BEVERLY        RAIN      46  43  89 SE18G26   29.79F FOG              
LAWRENCE       RAIN      43  42  97 E8        29.81F FOG              
BEDFORD        HVY RAIN  46  42  86 E16G26    29.77F FOG              
BLUE HILL        N/A     44  44 100 SE21G31   29.71F                  
NORWOOD        RAIN      50  44  80 E14       29.74F                  
MARSHFIELD     LGT RAIN  46  46 100 S13G20    29.79F                  
PLYMOUTH       LGT RAIN  50  49  96 SE13G26   29.77F                  
TAUNTON        HVY RAIN  50  48  93 SE14G22   29.75F FOG              
NEW BEDFORD    RAIN      47  47 100 SE18G26   29.76F FOG              
$$

MAZALL-260300-
CAPE COD AND THE ISLANDS
  
CITY           SKY/WX    TMP DP  RH WIND       PRES   REMARKS
FALMOUTH       CLOUDY    46  46 100 SE24G36   29.79F                  
HYANNIS        LGT RAIN  48  46  93 SE14G22   29.78F FOG              
CHATHAM        HVY RAIN  48  47  96 SE15G33   29.80F FOG              
PROVINCETOWN   RAIN      48  47  96 SE15G23   29.81F FOG              
NANTUCKET      LGT RAIN  48  47  96 SE18      29.79F FOG              
MARTHAS VNYRD  RAIN      48  47  96 SE20G30   29.77F FOG              
$$
 
MAZALL-260300-
CENTRAL AND WESTERN MASSACHUSETTS
  
CITY           SKY/WX    TMP DP  RH WIND       PRES   REMARKS
WORCESTER      LGT RAIN  40  39  97 NE10G22   29.73F FOG              
FITCHBURG      LGT RAIN  39  37  92 NW8       29.78F FOG              
ORANGE         HVY RAIN  42  38  85 MISG      29.76F FOG              
SPRINGFIELD    CLOUDY    41  40  96 NE3       29.71F                  
WESTFIELD      LGT RAIN  40  39  97 N6        29.74F FOG              
NORTH ADAMS    LGT RAIN  41  36  82 SE14      29.72F                  
PITTSFIELD     CLOUDY    38  35  89 CALM      29.70F                  
$$
 
RIZALL-260300-
RHODE ISLAND
  
CITY           SKY/WX    TMP DP  RH WIND       PRES   REMARKS
PROVIDENCE     LGT RAIN  52  51  97 SE20G36   29.72F FOG              
NEWPORT        HVY RAIN  48  46  93 SE15G23   29.73F FOG              
BLOCK ISLAND   LGT RAIN  51  50  96 S18G30    29.75R                  
SMITHFIELD     LGT RAIN  48  48 100 SW6       29.73S                  
WESTERLY       LGT RAIN  52  48  86 S15G30    29.74S FOG              
$$
 
CTZALL-260300-
CONNECTICUT
  
CITY           SKY/WX    TMP DP  RH WIND       PRES   REMARKS
BRADLEY INTL   LGT RAIN  42  39  89 N6        29.72F FOG              
HARTFORD       CLOUDY    43  41  93 CALM      29.73F                  
BRIDGEPORT     FOG       46  45  96 SW7       29.73S VSB 1            
DANBURY        FOG       39  39 100 CALM      29.73F VSB 1            
GROTON         CLOUDY    47  47 100 S16       29.72S FOG              
NEW HAVEN      CLOUDY    48  47  96 SW5       29.72F FOG              
CHESTER        FOG       48  48 100 VRB7      29.72S VSB 1/2          
MERIDEN        CLOUDY    42  41  96 W9        29.73S FOG              
WILLIMANTIC    LGT RAIN  44  44 100 CALM      29.73F VSB 1            
OXFORD         FOG       43  43 100 CALM      29.72F VSB 1/2          
$$

MEZ002-015-021-024-NHZ003-005-008-011-012-014-VTZ005-008-260300-
NORTHERN NEW ENGLAND
  
CITY           SKY/WX    TMP DP  RH WIND       PRES   REMARKS
PORTLAND ME    LGT RAIN  39  36  89 E21G33    29.95F FOG     WCI  29  
BANGOR ME      CLOUDY    34  31  88 NE8       30.11F WCI  27          
CONCORD NH     RAIN      39  36  89 E14       29.83F FOG     WCI  31  
MANCHESTER NH  RAIN      42  40  92 E6        29.81F FOG              
NASHUA NH      LGT RAIN  43  43 100 N3        29.81F FOG              
PORTSMOUTH NH  LGT RAIN  42  42  97 E16G28    29.82  FOG              
JAFFREY NH     RAIN      39  37  92 VRB3      29.79S FOG              
KEENE NH       LGT RAIN  40  38  93 N10       29.78R FOG              
BURLINGTON VT  RAIN      34  31  88 NW8       29.81F VSB 1   WCI  27  
MT. WASHINGTON LGTSLEET  19  19 100 SE66        N/A  VSB 1/16WCI  -6  
$$

NYZ052-076-260300-
EASTERN NEW YORK
  
CITY           SKY/WX    TMP DP  RH WIND       PRES   REMARKS
ALBANY         LGT RAIN  38  35  89 NW6       29.76F FOG              
NEW YORK CITY  MOCLDY    45  40  82 NW12      29.76R                  
$$
 
ANZALL-260300-
MARINE OBSERVATIONS
  
STATION/POSITION TIME  TEMP    WIND        PRES    VSBY  WAVE
                       AIR SEA DIR/SP/G                  HT/PER
                 (UTC) (F)     (DEG/KT/KT) (MB)    (MI)  (FT/S)
BOSTON BUOY      0150   45 43  110/ 25/ 31 1007.4F         9/ 7
BUZZARDS BAY     0100   46     120/ 31/ 34 1007.7F
NANTUCKET SOUND  0140                        N/A           3/ 5
MASS BAY-STELLWA 0104   44 42  120/ 25/ 33 1008.4F  1 1/8 10/ 6
ISLE OF SHOALS   0100   43      80/ 35/ 39 1009.9F
S OF BLOCK IS    0200      44                N/A           8/10
$$

......................KEY.........................
  SKY/WX - SKY CONDITION/PRESENT WEATHER
  TMP    - TEMPERATURE IN FAHRENHEIT
  DWPT   - DEWPOINT IN FAHRENHEIT
  RH     - RELATIVE HUMIDITY IN PERCENT
  WIND   - DIRECTION AND SPEED IN MPH
  PRES   - MEAN SEA LEVEL PRESSURE IN INCHES OF HG
  WCI    - WIND CHILL INDEX
  VSB    - VISIBILITY IN MILES
  HX     - HEAT INDEX
  TC     - TEMPERATURE IN CELSIUS
  VRB    - VARIABLE WIND DIRECTION
  N/A    - NOT AVAILABLE
  
      

Other recent Regional Weather Roundups

Tue Jan 28, 5:10am

Tue Jan 28, 5:00am

Tue Jan 28, 4:10am

Tue Jan 28, 4:00am

Tue Jan 28, 3:10am

Tue Jan 28, 3:01am

Tue Jan 28, 2:10am

Tue Jan 28, 2:00am

Tue Jan 28, 1:10am

Tue Jan 28, 1:00am

Tue Jan 28, 12:10am

Tue Jan 28, 12:01am

Mon Jan 27, 11:10pm

Mon Jan 27, 11:00pm

Mon Jan 27, 10:10pm

Mon Jan 27, 10:00pm

Mon Jan 27, 9:10pm

Mon Jan 27, 9:00pm

Mon Jan 27, 8:10pm

Mon Jan 27, 8:01pm

Mon Jan 27, 7:10pm

Mon Jan 27, 7:00pm

Mon Jan 27, 6:10pm

Mon Jan 27, 6:00pm

Mon Jan 27, 5:10pm

Mon Jan 27, 5:00pm

Mon Jan 27, 4:10pm

Mon Jan 27, 4:00pm

Mon Jan 27, 3:10pm

Mon Jan 27, 3:00pm

Mon Jan 27, 2:10pm

Mon Jan 27, 2:00pm

Mon Jan 27, 1:10pm

Mon Jan 27, 1:00pm

Mon Jan 27, 12:10pm

Mon Jan 27, 12:00pm

Mon Jan 27, 11:10am

Mon Jan 27, 11:01am

Mon Jan 27, 10:10am

Mon Jan 27, 10:00am

Mon Jan 27, 9:10am

Mon Jan 27, 9:00am

Mon Jan 27, 8:10am

Mon Jan 27, 8:00am

Mon Jan 27, 7:10am

Mon Jan 27, 7:00am

Mon Jan 27, 6:10am

Mon Jan 27, 6:00am

Mon Jan 27, 5:10am

Mon Jan 27, 5:00am

Mon Jan 27, 4:10am

Mon Jan 27, 4:01am

Mon Jan 27, 3:10am

Mon Jan 27, 3:00am

Mon Jan 27, 2:10am

Mon Jan 27, 2:00am

Mon Jan 27, 1:10am

Mon Jan 27, 1:00am

Mon Jan 27, 12:10am

Mon Jan 27, 12:00am

Sun Jan 26, 11:10pm

Sun Jan 26, 11:00pm

Sun Jan 26, 10:10pm

Sun Jan 26, 10:00pm

Sun Jan 26, 9:10pm

Sun Jan 26, 9:01pm

Sun Jan 26, 8:10pm

Sun Jan 26, 8:00pm

Sun Jan 26, 7:10pm

Sun Jan 26, 7:00pm

Sun Jan 26, 6:10pm

Sun Jan 26, 6:01pm

Sun Jan 26, 5:10pm

Sun Jan 26, 5:01pm

Sun Jan 26, 4:10pm

Sun Jan 26, 4:00pm

Sun Jan 26, 3:10pm

Sun Jan 26, 3:01pm

Sun Jan 26, 2:10pm

Sun Jan 26, 2:01pm

Sun Jan 26, 1:10pm

Sun Jan 26, 1:00pm

Sun Jan 26, 12:10pm

Sun Jan 26, 12:00pm

Sun Jan 26, 11:10am

Sun Jan 26, 11:01am

Sun Jan 26, 10:10am

Sun Jan 26, 10:01am

Sun Jan 26, 9:10am

Sun Jan 26, 9:00am

Sun Jan 26, 8:10am

Sun Jan 26, 8:00am

Sun Jan 26, 7:10am

Sun Jan 26, 7:00am

Sun Jan 26, 6:10am

Sun Jan 26, 6:00am

Sun Jan 26, 5:10am

Sun Jan 26, 5:00am

Sun Jan 26, 4:10am

Sun Jan 26, 4:01am

Sun Jan 26, 3:10am

Sun Jan 26, 3:01am

Sun Jan 26, 2:10am

Sun Jan 26, 2:00am

Sun Jan 26, 1:10am

Sun Jan 26, 1:00am

Sun Jan 26, 12:10am

Sun Jan 26, 12:00am

Sat Jan 25, 11:10pm

Sat Jan 25, 11:00pm

Sat Jan 25, 10:10pm

Sat Jan 25, 10:01pm

Sat Jan 25, 9:01pm

Sat Jan 25, 8:10pm

Sat Jan 25, 8:01pm

Sat Jan 25, 7:10pm

Sat Jan 25, 7:01pm

Sat Jan 25, 6:10pm

Sat Jan 25, 6:01pm

Sat Jan 25, 5:10pm

Sat Jan 25, 5:01pm

Sat Jan 25, 4:10pm

Sat Jan 25, 4:00pm

Sat Jan 25, 3:10pm

Sat Jan 25, 3:01pm

Sat Jan 25, 2:10pm

Sat Jan 25, 2:00pm

Sat Jan 25, 1:10pm

Sat Jan 25, 1:00pm

Sat Jan 25, 12:10pm

Sat Jan 25, 12:00pm

Sat Jan 25, 11:10am

Sat Jan 25, 11:00am

Sat Jan 25, 10:10am

Sat Jan 25, 10:00am

Sat Jan 25, 9:10am

Sat Jan 25, 9:00am

Sat Jan 25, 8:10am

Sat Jan 25, 8:01am

Sat Jan 25, 7:10am

Sat Jan 25, 7:00am

Sat Jan 25, 6:10am

Sat Jan 25, 6:00am

Meta data:

ID: d2671b1b-d740-4556-83d8-29e0a619bc8d
Link: https://api.weather.gov/products/d2671b1b-d740-4556-83d8-29e0a619bc8d